Flag for Russia Weather past 2 weeks in Barnaul, Russia

Now
46 °F

Partly sunny.


Feels Like: 42 °F
Forecast: 34 / 52 °F
Wind: 8 mph from Southwest

Location: Barnaul Airport

Current Time: Apr 28, 2015 at 5:09:41 PM

Latest Report: Apr 28, 2015 at 4:30 PM


Visibility: N/A

Pressure: 30.09 "Hg

Humidity: 53%

Dew point: 30 °F

Location of BarnaulLocation

Historic Weather in Barnaul — Graph

°F

Barnaul temperature yesterday

Maximum temperature yesterday: 55 °F (at 12:30 PM)
Minimum temperature yesterday: 43 °F (at 11:30 PM)
Average temperature yesterday: 49 °F

Past Weeks' High & Low Weather Summary

 TemperatureHumidityPressure
High77 °F (Apr 22, 2:00 PM)100% (Apr 16, 8:00 AM)30.24 "Hg (Apr 16, 8:00 AM)
Low30 °F (Apr 15, 5:30 AM)21% (Apr 22, 3:00 PM)29.39 "Hg (Apr 27, 5:00 AM)
Average50 °F57%29.90 "Hg
* Reported Apr 13 3:00 PM — Apr 28 3:30 PM, Barnaul, Weather by CustomWeather, © 2015

Note: Actual official high and low records may vary slightly from our data, if they occured in-between our weather recording intervals... More about our weather records

Advertising

Barnaul weather history for previous 24 hours

 ConditionsComfort  
Time TempWeatherWind HumidityBarometerVisibility
3:30 PM
Tue, Apr 28
46 °FPartly sunny.10 mph53%30.12 "HgN/A
3:00 PM45 °FPartly sunny.8 mph61%30.12 "HgN/A
2:30 PM45 °FSprinkles. Partly sunny.20 mph57%30.12 "HgN/A
2:00 PM46 °FPartly sunny.13 mph50%30.12 "HgN/A
1:30 PM46 °FPartly sunny.8 mph43%30.12 "HgN/A
1:00 PM45 °FPartly sunny.17 mph49%30.12 "HgN/A
12:30 PM48 °FPartly sunny.22 mph40%30.12 "HgN/A
12:00 PM50 °FPartly sunny.15 mph32%30.12 "HgN/A
11:30 AM48 °FPartly sunny.17 mph34%30.12 "HgN/A
11:00 AM50 °FPartly sunny.20 mph37%30.15 "HgN/A
10:30 AM48 °FScattered clouds.20 mph34%30.15 "HgN/A
9:30 AM46 °FScattered clouds.20 mph46%30.12 "HgN/A
9:00 AM45 °FScattered clouds.22 mph53%30.12 "HgN/A
8:30 AM43 °FScattered clouds.24 mph61%30.12 "HgN/A
8:00 AM43 °FScattered clouds.22 mph61%30.09 "HgN/A
7:30 AM41 °FPassing clouds.22 mph70%30.09 "HgN/A
7:00 AM41 °FPassing clouds.15 mph70%30.07 "HgN/A
6:30 AM37 °FPassing clouds.13 mph87%30.07 "HgN/A
6:00 AM37 °FScattered clouds.13 mph87%30.04 "HgN/A
5:30 AM37 °FPartly sunny.13 mph87%30.01 "HgN/A
5:00 AM37 °FPartly sunny.13 mph87%30.01 "HgN/A
4:30 AM37 °FPassing clouds.10 mph87%30.01 "HgN/A
4:00 AM37 °FPassing clouds.13 mph87%29.98 "HgN/A
3:30 AM37 °FSprinkles. Passing clouds.17 mph87%29.98 "Hg4 mi
3:00 AM39 °FPassing clouds.17 mph81%29.95 "HgN/A
2:30 AM41 °FPassing clouds.15 mph70%29.95 "HgN/A
2:00 AM43 °FPassing clouds.22 mph66%29.92 "HgN/A
1:30 AM43 °FPassing clouds.15 mph57%29.92 "HgN/A
1:00 AM43 °FPassing clouds.10 mph53%29.92 "HgN/A
12:30 AM43 °FClear.8 mph53%29.92 "Hg10 mi
12:00 AM43 °FClear.8 mph49%29.92 "Hg10 mi
11:30 PM
Mon, Apr 27
43 °FClear.8 mph49%29.92 "Hg10 mi
11:00 PM45 °FClear.8 mph46%29.92 "Hg10 mi
10:30 PM45 °FClear.8 mph46%29.95 "Hg10 mi
10:00 PM45 °FClear.10 mph46%29.95 "Hg10 mi
9:30 PM45 °FClear.8 mph46%29.95 "Hg10 mi
9:00 PM45 °FPassing clouds.10 mph46%29.92 "HgN/A
8:30 PM46 °FPassing clouds.8 mph43%29.92 "HgN/A
8:00 PM46 °FPassing clouds.10 mph40%29.92 "HgN/A
7:30 PM48 °FScattered clouds.17 mph40%29.92 "HgN/A
7:00 PM48 °FScattered clouds.17 mph40%29.89 "HgN/A
6:30 PM50 °FScattered clouds.20 mph40%29.89 "HgN/A
6:00 PM50 °FScattered clouds.26 mph40%29.89 "HgN/A
5:30 PM50 °FScattered clouds.24 mph40%29.89 "HgN/A
5:00 PM50 °FScattered clouds.24 mph40%29.86 "HgN/A
Weather by CustomWeather, © 2015

See weather overviewHow to use our weather pages